Location: *
(28.3744°N, 81.5492°W)
Time: 15:02:40
(UTC+00:00)

H-2A R/B - Pass Details

Date: 15 June 2025
Orbit: 556 x 620 km, 98.4° (Epoch: 15 July)

Event Time Altitude Azimuth Distance (km) Brightness Sun altitude
Rises 07:38:59 0° 3° (N) 2,742 6.2 -29.3°
Reaches altitude 10° 07:41:10 10° 356° (N) 1,848 5.1 -29.0°
Enters shadow 07:42:55 23° 343° (NNW) 1,208 3.8 -28.8°
